GFSCGP_850_temp_057.txt.gz
Temp
16 19 19 21 21 22 20 21 21 22 19 17 20 21 22 22 22 22 22 21 21 22 21 20 19 18 19 19 18 17 17 17 15 15 15 15 15 14 14 14 11 10 11 11
17 18 21 19 19 18 19 20 20 22 18 16 19 20 21 21 22 22 22 22 22 22 22 21 19 18 19 20 19 18 18 17 16 16 15 15 15 14 14 15 14 13 12 11
18 19 18 17 17 17 18 19 20 20 17 18 17 19 22 24 22 21 21 21 21 22 22 22 21 19 18 19 20 19 19 18 17 16 15 15 14 14 15 16 15 14 13 12
18 17 16 16 18 18 19 20 18 17 17 19 18 19 22 23 24 24 22 22 21 21 20 19 20 20 19 19 19 19 18 18 17 16 15 15 16 16 16 16 15 15 13 11
17 15 14 16 17 18 18 16 17 16 16 17 18 16 21 23 22 23 23 23 22 22 21 20 18 18 17 17 17 17 17 17 16 16 16 15 15 15 14 14 15 14 12 11
16 12 15 17 13 16 14 15 16 15 16 16 19 18 21 23 24 24 23 22 22 20 19 19 19 19 18 17 18 17 17 17 16 15 15 14 14 13 12 13 14 14 12 11
16 14 14 13 14 13 15 17 17 16 15 17 15 16 20 22 22 22 22 21 21 18 18 18 19 19 19 19 18 18 17 16 16 14 13 12 12 11 11 11 12 13 12 11
16 15 14 14 16 16 14 17 17 16 17 18 11 15 20 22 21 20 19 19 19 18 17 18 19 18 19 18 18 18 18 17 16 15 15 13 13 12 11 11 12 13 12 12
17 16 15 13 16 18 15 14 17 16 9 13 18 20 22 18 17 19 19 19 18 18 17 16 17 17 18 18 18 17 17 17 17 16 15 14 13 11 10 9 9 10 11 11
17 15 12 12 12 13 14 17 14 15 13 14 18 19 20 21 21 20 19 19 18 16 15 17 16 17 18 18 18 18 18 17 16 16 15 14 13 12 10 9 9 9 9 8
15 14 11 11 12 14 13 13 14 15 15 15 16 19 22 22 21 21 19 17 16 16 15 15 16 18 18 18 18 18 18 18 17 17 16 15 14 13 11 10 9 10 9 8
14 14 13 13 13 12 15 15 15 14 13 14 14 17 18 20 20 17 18 17 16 16 17 17 17 18 18 18 18 18 18 18 17 17 16 16 14 13 12 11 10 9 9 8
11 9 9 12 12 10 11 14 13 15 13 13 13 16 20 20 18 18 17 17 16 17 16 16 17 17 18 18 17 17 17 17 17 16 16 16 16 14 13 12 10 9 9 8
8 6 8 11 14 14 12 13 14 13 12 13 14 16 19 19 19 19 18 16 16 17 17 17 17 16 16 15 15 15 16 16 16 16 16 16 16 15 12 11 10 9 9 8
8 6 7 10 12 12 12 13 13 12 13 12 14 15 17 18 18 19 18 18 17 17 16 17 16 16 15 14 14 15 14 14 14 14 15 15 15 14 12 10 10 10 9 8
7 7 9 8 11 12 11 12 13 13 13 14 14 15 17 17 17 17 17 17 16 15 15 15 15 15 14 14 14 13 13 13 13 13 13 14 13 12 11 9 9 9 8 7
6 5 6 7 9 9 7 8 12 12 13 13 13 15 16 16 16 16 16 16 15 15 15 14 14 13 13 12 12 11 11 12 12 12 12 12 11 10 10 8 8 7 7 6
6 6 5 6 6 7 10 12 12 12 13 14 13 14 14 14 15 14 14 14 14 14 14 13 13 13 12 11 11 11 11 10 11 11 10 10 9 9 8 7 6 5 5 4
7 6 6 6 7 9 10 12 11 10 11 13 13 13 14 14 14 14 13 13 13 13 13 12 11 11 11 10 10 10 11 10 10 10 9 9 8 7 6 6 5 4 4 3
7 7 6 6 6 6 11 13 13 13 9 12 8 10 12 13 11 13 13 13 13 12 12 12 12 10 10 10 10 10 10 10 10 9 8 7 7 6 5 3 3 2 2 0
4 4 4 5 5 7 8 9 10 8 9 5 5 5 6 7 10 9 9 8 8 9 11 10 10 10 9 9 9 9 8 8 8 7 7 6 5 5 4 2 1 0 0 -1
6 5 5 5 5 5 5 7 8 6 6 6 6 6 6 7 7 6 7 6 6 6 7 8 8 8 8 8 8 8 7 7 6 6 5 4 3 2 1 1 -0 -1 -1 -2
4 6 6 5 6 4 6 6 7 5 5 5 5 6 6 6 6 7 6 6 6 6 6 6 6 6 6 6 6 6 6 6 5 4 3 2 1 0 -1 -1 -2 -2 -2 -2
5 4 4 4 5 5 5 4 5 5 5 6 7 7 5 4 6 6 7 6 7 6 5 5 4 4 5 4 4 4 4 4 3 2 1 0 -0 -1 -2 -2 -3 -3 -3 -3
3 3 3 3 4 4 4 5 6 5 5 6 6 6 6 4 5 4 3 4 6 5 5 3 4 2 3 3 2 2 1 1 1 1 1 -0 -1 -2 -2 -3 -4 -4 -4 -4
3 3 3 3 4 4 4 4 5 4 4 5 5 5 6 5 4 3 3 3 3 4 2 1 1 2 2 2 1 1 -0 -1 0 1 0 -0 -0 -1 -1 -2 -3 -4 -4 -4

GFSCGP_850_temp_060.txt.gz
Temp
17 15 15 17 17 19 19 18 19 19 16 17 16 16 17 21 22 21 21 21 21 21 21 21 20 20 19 18 17 16 16 16 16 16 16 15 15 15 14 13 11 11 11 11
15 14 17 18 18 18 18 17 17 18 16 16 15 15 16 18 19 21 21 21 21 22 21 21 21 20 19 19 18 16 16 17 18 17 17 15 16 15 15 14 14 13 11 11
15 17 18 17 17 17 17 16 17 17 16 15 14 14 16 18 19 20 21 21 21 22 22 22 22 21 20 19 19 18 18 17 17 16 16 15 14 14 14 15 15 13 12 11
15 16 15 15 16 16 15 17 17 17 15 14 17 12 17 18 19 18 21 21 22 21 21 21 21 21 21 20 20 19 17 15 16 16 15 15 16 16 16 16 16 15 14 13
15 13 14 15 16 17 16 16 17 16 14 14 15 12 14 18 18 20 21 23 23 22 22 21 21 20 19 19 19 18 17 16 16 16 15 15 15 16 15 14 14 14 14 14
13 13 15 15 13 14 14 15 15 15 13 10 13 14 15 17 19 21 23 22 21 21 21 20 20 19 19 18 18 18 17 16 15 14 14 14 15 15 14 14 14 14 14 14
13 13 13 13 12 13 14 15 12 11 9 10 14 14 17 18 18 19 20 21 20 20 19 19 19 19 19 18 18 17 17 16 15 14 14 14 13 14 14 14 14 14 14 14
13 12 11 12 13 12 11 13 10 11 11 12 10 11 14 18 21 21 21 21 19 19 18 19 18 17 18 18 18 17 17 16 15 14 15 15 14 13 13 12 13 13 12 12
14 14 14 13 14 14 12 12 15 13 5 7 12 15 17 17 17 18 19 19 19 18 17 17 16 16 17 17 17 17 17 16 16 16 15 14 14 13 13 12 11 11 11 11
15 13 11 10 12 13 13 14 11 10 9 9 13 13 15 17 16 15 18 18 17 17 17 16 16 15 16 17 17 17 17 17 17 17 16 16 15 14 14 13 12 12 11 9
14 12 9 10 10 11 11 11 13 13 11 9 11 13 18 17 16 15 16 17 16 16 16 16 16 16 17 17 18 18 18 18 18 18 18 17 17 15 14 14 13 12 10 9
13 12 9 10 11 10 12 13 12 10 11 9 9 14 17 16 15 17 17 17 17 17 16 16 16 17 17 17 17 17 17 17 17 17 17 17 16 16 15 14 13 11 10 8
10 8 6 10 10 10 10 12 13 12 9 8 8 13 16 16 16 18 18 17 18 17 17 17 17 17 17 17 17 16 16 16 15 15 16 16 16 16 15 15 14 12 10 9
9 7 8 10 11 11 11 11 12 11 8 11 11 13 14 15 14 16 17 17 17 17 17 17 17 17 17 16 16 15 15 15 15 14 15 15 15 15 15 14 14 12 11 10
7 6 6 8 9 10 9 8 9 9 9 9 11 12 14 14 14 16 17 16 17 17 17 17 16 16 16 15 15 14 14 14 13 13 13 14 14 13 13 13 13 12 11 9
7 6 6 6 8 9 8 10 10 10 10 10 11 11 14 15 15 15 15 15 15 15 15 15 15 15 15 14 14 13 13 13 12 12 12 12 13 13 12 11 10 9 9 8
5 5 5 7 7 7 6 7 8 10 11 11 11 13 12 12 13 14 14 14 14 13 14 14 14 14 13 13 13 12 12 11 11 10 10 10 10 11 11 10 8 8 7 6
5 4 4 6 5 6 8 11 10 9 10 11 11 12 12 12 13 13 13 13 13 13 13 13 13 12 12 12 12 11 11 10 10 10 10 9 9 9 9 8 8 6 5 4
5 5 4 5 4 6 7 9 9 8 9 10 11 12 12 10 9 11 12 9 9 9 9 10 10 11 11 11 11 11 11 10 10 10 9 9 9 8 8 7 6 5 4 3
5 5 4 4 0 -1 8 9 11 9 7 7 7 6 6 6 6 9 9 9 8 8 8 8 8 9 9 10 9 9 10 10 10 9 9 8 8 7 7 6 4 3 2 1
2 1 4 4 4 4 4 7 9 5 6 5 5 6 5 5 6 7 7 7 7 7 7 7 7 7 7 7 7 7 8 8 8 8 7 7 6 5 5 4 3 2 1 -0
2 -1 0 1 3 4 6 6 5 5 5 6 5 5 5 6 6 6 7 7 7 7 7 7 7 8 7 6 6 6 5 5 6 6 5 5 4 4 3 2 1 -0 -1 -3
-0 3 1 3 2 4 5 5 5 5 5 4 5 6 6 5 6 6 6 6 6 6 5 6 6 6 7 7 4 4 5 5 4 3 3 2 2 1 1 -0 -1 -2 -2 -3
-1 3 -1 -1 0 3 5 5 4 4 5 5 4 5 5 5 5 5 5 6 5 4 5 4 5 5 5 6 5 2 2 4 2 2 2 1 1 -1 -2 -2 -2 -3 -3 -3
-0 -0 -2 -2 0 3 4 5 5 4 4 4 4 4 4 4 4 5 5 5 4 5 4 3 3 3 3 2 3 2 1 0 1 1 0 -0 -1 -1 -2 -3 -3 -3 -3 -3
1 0 0 0 2 2 2 4 4 3 4 4 4 4 4 3 3 4 3 4 3 3 2 2 2 2 1 0 1 -1 -1 -4 -1 -0 -1 -1 -0 -1 -2 -2 -3 -3 -3 -3

GFSCGP_850_temp_063.txt.gz
Temp
16 12 12 13 13 15 17 17 16 15 16 16 14 13 13 17 18 18 20 20 20 21 21 21 21 21 20 20 18 17 16 16 16 15 15 14 14 14 14 14 13 13 12 12
12 12 13 14 15 16 17 17 15 15 15 16 15 14 13 15 17 18 20 20 21 21 21 21 21 21 21 20 20 18 17 17 16 16 16 15 15 15 15 14 13 12 12 12
12 15 15 16 16 16 16 15 16 16 15 14 13 12 14 16 16 19 19 20 21 21 21 21 21 21 21 20 20 20 19 18 16 16 16 15 14 14 14 14 13 13 12 12
14 15 15 15 15 15 15 15 15 16 14 13 14 11 12 17 17 16 20 22 22 22 21 21 21 21 21 21 21 20 19 18 17 16 15 15 15 15 16 15 14 14 13 12
13 13 14 14 14 14 14 15 15 15 13 13 12 11 11 13 16 16 19 21 21 21 21 21 21 21 21 20 20 20 19 18 17 16 15 14 14 14 14 14 14 13 13 12
13 13 13 13 11 14 12 13 13 11 10 9 11 12 10 14 17 18 19 20 21 21 20 20 20 20 20 19 18 18 18 17 16 15 14 14 14 14 14 14 14 14 13 12
12 12 12 13 12 12 14 12 10 10 8 10 10 11 13 15 16 19 19 20 19 19 20 20 19 19 19 19 19 18 17 16 15 14 14 13 14 13 13 13 13 13 13 13
10 11 11 11 12 11 11 12 9 10 9 10 10 11 15 14 17 19 20 18 18 19 19 18 18 18 18 17 17 17 16 16 15 14 14 14 13 13 13 13 13 13 13 13
11 12 11 11 12 13 11 11 12 11 1 6 10 11 14 14 15 18 19 18 17 17 17 17 17 17 16 16 17 17 17 16 16 16 16 15 15 15 15 14 14 14 13 12
13 12 9 10 12 11 12 12 11 7 9 8 10 11 13 15 16 15 14 16 16 16 16 16 16 15 16 16 17 17 17 17 17 17 17 17 17 16 16 16 16 15 15 13
11 11 9 10 10 10 10 11 12 11 8 9 8 11 11 14 15 12 13 16 17 16 16 16 16 16 17 17 17 17 17 16 17 17 16 16 17 17 17 17 16 15 13 13
11 10 6 9 10 10 11 10 10 9 10 7 8 13 14 13 13 15 16 17 17 16 17 16 17 17 17 16 16 16 16 16 16 15 15 15 15 16 16 16 16 15 14 12
10 7 4 8 9 9 10 10 11 10 7 8 7 13 12 12 14 15 15 16 17 17 17 17 17 16 16 16 16 15 15 15 15 14 14 14 14 14 15 15 14 14 13 12
10 7 7 8 9 9 8 8 9 10 7 10 9 13 13 13 12 13 14 15 15 15 16 16 16 16 16 16 15 15 14 14 14 13 13 13 13 14 14 13 13 12 12 11
8 6 6 7 8 8 8 7 7 7 7 6 10 8 11 11 12 13 14 14 15 14 14 14 14 15 15 15 14 14 13 13 13 12 12 12 12 12 12 12 12 11 11 11
6 5 6 6 6 7 6 8 7 7 7 8 9 9 11 12 12 12 13 13 13 13 12 12 12 13 13 13 13 13 13 12 12 12 12 12 11 11 10 11 11 10 9 9
6 5 5 6 6 6 6 6 7 8 9 10 9 10 11 11 11 11 12 12 11 10 9 10 10 11 11 12 12 12 12 12 11 11 11 11 10 10 10 9 9 9 8 7
5 4 4 4 4 5 7 7 8 8 9 9 10 10 11 11 10 10 10 8 8 8 8 8 9 9 10 10 11 12 12 11 11 11 11 11 10 10 9 8 8 7 7 6
4 5 2 -0 -1 4 6 7 8 7 8 9 9 9 8 6 8 9 8 8 7 7 7 7 7 7 8 9 9 9 9 9 9 10 9 9 10 10 9 9 7 6 5 4
3 4 4 -4 1 0 5 7 9 7 5 4 5 5 4 5 4 4 7 7 7 7 7 6 7 7 7 7 7 8 8 8 8 8 8 9 8 8 7 7 6 5 4 3
2 3 3 3 2 -0 3 4 8 4 4 5 5 5 5 4 5 6 6 7 7 7 6 6 6 6 7 7 7 7 7 7 8 7 6 6 6 6 6 5 4 3 2 1
2 1 2 3 2 3 5 4 4 4 4 5 4 5 5 5 5 6 6 6 6 7 6 6 5 5 6 6 6 6 6 6 6 6 5 4 4 3 3 3 2 1 0 -0
-1 1 -2 1 1 4 4 4 5 5 5 5 5 5 4 4 5 5 5 5 5 5 5 5 4 5 6 6 6 6 4 4 4 5 4 2 2 1 0 0 0 -0 -1 -3
-2 1 -2 -1 -0 0 3 3 4 4 4 4 4 4 4 3 4 4 3 3 3 4 4 4 3 3 4 4 3 2 3 2 2 3 2 2 -0 -1 -1 -2 -2 -2 -3 -3
-1 -1 -4 -4 -1 2 4 4 3 3 3 3 3 3 3 3 3 2 2 2 2 2 3 3 3 2 2 2 2 1 -0 -0 -0 0 0 -1 -3 -3 -3 -3 -3 -3 -4 -4
-0 -1 -2 -3 0 0 1 3 3 2 2 2 2 3 3 2 2 2 2 2 1 1 2 2 2 1 1 1 -1 -1 -1 -2 -3 -2 -2 -2 -3 -4 -3 -3 -3 -4 -3 -4

GFSCGP_850_temp_069.txt.gz
Temp
13 12 12 12 12 14 12 14 15 15 14 15 13 11 12 17 16 17 18 20 20 20 22 20 20 20 19 19 18 18 17 16 15 15 14 13 13 13 12 12 12 12 12 12
11 11 12 12 12 14 14 15 15 14 14 14 13 12 11 13 14 17 19 20 21 21 21 21 21 20 20 20 20 19 19 18 17 16 15 15 14 14 13 12 12 12 12 12
12 14 12 13 12 13 14 13 14 15 13 12 11 11 12 14 14 17 19 20 20 20 21 21 20 20 20 20 20 20 20 19 19 17 16 15 14 14 13 13 13 12 11 12
13 13 12 13 13 13 13 13 13 14 12 12 11 11 11 12 11 12 18 19 19 21 21 21 21 20 20 20 20 20 20 19 19 18 17 16 15 15 15 14 14 13 12 12
13 12 12 13 14 13 14 13 12 12 10 11 11 11 11 11 14 13 15 16 18 18 19 19 20 20 20 20 20 20 20 19 18 17 17 16 16 15 15 14 13 13 12 11
11 12 13 12 10 13 9 11 9 7 8 9 10 11 10 12 15 17 16 17 17 18 18 18 18 19 19 19 19 19 19 19 17 17 16 16 15 15 14 14 13 13 12 12
11 11 11 12 11 12 11 11 10 10 7 9 8 9 10 12 12 14 13 16 16 17 18 18 18 18 18 18 18 18 18 17 17 17 16 16 15 14 14 13 12 12 12 11
10 11 10 11 12 11 11 12 9 10 8 9 9 9 13 12 13 14 15 15 15 16 15 16 16 16 16 16 17 17 17 17 16 16 16 15 14 14 14 14 14 13 13 12
9 11 10 10 11 12 11 10 10 7 -3 5 9 10 12 11 10 12 14 15 15 15 15 15 15 16 16 16 16 16 16 16 16 16 16 16 15 15 15 14 14 14 14 13
10 11 8 10 11 10 11 10 10 6 7 7 9 10 12 14 10 11 11 13 15 15 15 16 16 16 15 15 15 15 15 15 15 15 15 16 16 15 15 15 15 14 14 14
9 10 9 9 9 9 10 10 9 9 7 7 6 10 9 12 10 9 12 14 14 14 15 15 14 14 14 14 14 14 14 14 14 14 14 14 14 14 14 14 14 13 13 13
10 9 6 8 9 9 10 9 9 8 8 5 7 9 9 9 10 12 13 14 15 15 14 14 14 14 14 14 13 13 13 13 13 13 13 14 14 13 13 13 13 12 12 12
9 7 5 8 9 8 9 9 9 8 6 7 7 9 9 9 9 10 11 12 12 13 13 13 13 13 14 14 14 14 13 13 12 12 13 13 12 12 12 12 12 11 11 11
10 6 8 10 10 8 8 8 8 9 6 9 9 10 10 7 8 9 11 11 11 11 12 12 13 13 12 12 12 11 11 11 11 11 11 11 11 11 11 11 11 11 11 11
8 6 7 7 7 7 7 7 6 8 10 9 11 9 10 9 8 10 10 10 11 11 11 11 11 11 11 11 11 11 10 10 11 11 11 11 11 11 10 10 10 10 10 10
6 5 6 5 7 7 8 6 6 6 6 6 6 7 7 11 10 11 10 8 7 8 8 8 9 9 9 10 10 10 10 11 10 11 11 10 11 11 10 10 10 10 10 10
6 5 4 6 5 5 6 6 6 6 6 6 7 9 8 9 9 9 8 8 7 7 7 7 7 7 8 8 9 10 10 10 10 10 9 9 10 10 10 10 10 9 10 10
5 4 4 4 4 6 7 6 7 8 8 7 7 8 7 7 7 7 6 6 6 6 6 6 6 7 7 8 8 8 8 9 9 9 9 9 9 10 9 9 9 9 8 8
5 4 4 5 5 4 6 5 5 5 6 6 7 4 4 5 5 5 6 6 6 5 5 5 5 6 6 7 7 7 8 8 8 8 9 9 9 10 10 10 9 9 8 7
4 5 5 1 4 2 4 6 7 7 4 5 6 3 4 4 3 2 5 5 5 5 5 5 5 5 5 5 5 5 6 6 7 7 7 8 8 8 8 8 8 8 7 7
3 4 5 -0 1 1 1 5 7 2 4 4 5 4 4 3 4 5 5 5 4 4 4 4 3 3 4 4 4 4 4 5 5 5 6 6 6 6 6 6 5 5 5 5
4 3 2 2 2 3 4 4 4 4 3 4 4 4 4 4 4 4 3 3 3 3 3 3 3 3 3 3 3 3 4 4 4 5 5 5 5 5 5 4 3 3 3 2
1 1 -0 1 2 2 3 3 4 5 4 4 4 3 3 3 3 3 3 3 3 2 2 2 2 2 2 3 3 3 3 3 4 4 4 4 4 4 3 2 2 2 1 0
-3 -1 -3 -2 -3 0 3 3 3 3 3 3 3 2 2 2 2 2 2 2 2 1 1 1 1 1 1 2 2 2 2 2 2 3 3 3 2 2 0 -0 -1 -2 -2 -2
-1 -2 -5 -4 -3 0 2 3 3 3 3 3 2 2 1 1 1 1 1 1 1 1 0 0 0 0 0 0 1 1 1 1 2 1 1 1 -0 -1 -1 -2 -2 -3 -4 -5
-1 -1 -1 -2 0 1 1 2 2 1 1 1 1 1 1 0 1 0 1 0 -0 0 0 -0 -0 -0 -0 -0 -0 0 -0 -0 0 1 0 -1 -2 -3 -4 -4 -5 -5 -5 -6

GFSCGP_850_temp_072.txt.gz
Temp
13 12 11 12 12 13 11 13 14 14 13 14 12 11 11 16 14 16 18 19 19 20 21 20 20 20 19 18 18 18 17 16 15 15 14 13 13 13 13 13 12 12 11 12
11 11 12 11 12 13 13 13 14 13 13 13 12 11 11 12 14 17 18 18 18 19 20 19 20 20 20 20 19 18 18 17 17 16 16 15 15 14 14 13 13 12 12 11
11 13 11 12 12 13 13 12 13 15 12 11 10 11 11 13 13 15 16 17 18 18 19 19 19 20 20 20 20 19 19 18 18 17 16 15 14 14 14 14 14 13 12 11
13 11 11 11 12 12 13 12 12 12 12 12 10 11 11 11 10 12 15 16 16 17 17 18 19 19 19 20 19 19 19 19 18 17 16 16 16 15 16 15 15 14 13 12
12 11 11 12 13 12 13 11 11 11 9 11 11 11 11 10 14 14 13 14 15 16 16 17 17 18 18 19 19 19 19 19 18 17 17 16 15 15 15 15 14 14 13 13
11 11 12 12 9 11 8 9 8 6 8 9 10 10 11 13 15 15 13 14 15 16 16 16 17 17 17 18 18 18 18 18 18 17 16 16 16 15 15 14 14 13 13 12
11 11 10 11 10 11 11 10 10 10 7 9 7 8 10 12 11 12 12 13 14 15 16 16 16 16 17 17 17 17 17 17 16 16 15 15 15 14 14 13 13 12 12 11
9 10 10 10 11 10 10 11 9 10 7 10 8 9 11 12 11 12 12 13 14 14 14 15 15 15 15 16 16 15 15 15 15 15 15 15 15 14 14 14 13 13 13 12
10 11 10 10 10 12 11 11 9 5 -4 4 8 9 12 9 9 11 12 13 13 14 14 15 15 15 15 15 15 15 15 15 15 14 14 14 15 14 14 14 14 14 13 13
11 10 8 9 11 10 11 8 10 6 6 7 8 9 10 12 10 10 10 12 13 13 14 14 14 14 14 14 14 14 14 14 14 14 15 15 14 14 14 14 14 13 13 13
9 10 8 9 9 8 9 10 8 8 7 7 5 9 7 9 9 9 10 13 13 13 13 13 13 13 13 13 14 13 13 13 13 13 13 13 13 14 14 13 13 13 13 12
10 8 7 8 8 8 9 9 9 8 7 4 6 8 8 8 9 11 12 12 13 12 12 12 13 13 13 13 13 13 13 13 12 12 12 12 12 12 12 12 12 12 12 12
8 7 3 7 9 7 8 8 8 7 6 6 6 7 7 7 8 11 11 12 13 13 13 12 13 13 12 12 12 12 12 12 11 12 12 12 12 12 12 12 12 12 12 12
10 7 8 10 10 7 8 8 8 10 7 9 8 9 8 7 7 9 10 11 11 11 11 11 11 11 10 10 10 10 10 10 10 10 11 11 11 11 11 11 11 11 11 11
8 6 8 7 7 8 7 7 6 8 11 10 10 9 10 9 6 9 9 10 10 10 9 9 9 9 9 9 9 9 9 9 9 9 9 9 9 9 10 10 10 10 10 10
6 5 6 5 6 7 7 7 6 7 6 7 6 7 7 10 10 8 8 9 9 8 7 7 8 8 8 8 8 8 8 8 8 8 8 8 9 9 9 10 10 10 10 9
6 4 4 4 5 6 6 6 5 5 5 7 8 9 7 8 9 8 6 6 6 6 6 6 7 7 7 7 7 7 7 8 8 8 9 9 9 9 9 9 9 9 9 9
6 5 5 4 5 7 8 5 6 7 6 6 7 7 7 8 8 8 7 6 6 6 6 6 6 6 7 7 7 7 8 8 8 8 8 8 9 9 9 9 9 9 8 8
6 5 4 5 5 5 6 5 5 6 7 6 7 4 6 6 6 4 5 5 5 5 5 5 5 6 6 6 6 7 7 7 7 7 7 7 7 7 7 7 7 7 7 7
4 5 6 2 5 4 5 5 6 7 5 5 6 4 3 4 3 2 5 5 5 5 5 5 5 5 5 5 5 5 5 5 5 6 6 6 5 5 6 6 6 6 6 6
4 4 4 4 3 2 2 4 6 4 5 3 5 4 4 3 5 4 4 4 4 4 4 4 4 4 4 3 3 3 4 4 4 4 4 4 5 5 5 5 5 5 4 4
5 5 5 2 3 4 3 4 5 4 2 4 4 4 4 4 4 4 4 4 3 3 3 3 3 3 2 2 2 2 2 2 2 3 3 3 3 4 3 4 4 3 2 1
2 3 2 3 3 1 3 4 5 5 5 4 4 3 3 3 3 2 2 2 2 2 2 2 1 1 1 1 1 1 1 1 1 1 2 2 3 3 2 2 3 2 0 -0
-3 -2 -1 1 -3 -1 2 3 4 4 4 3 3 3 3 2 2 2 2 2 1 1 1 1 0 0 0 0 -0 -0 -1 -1 -0 -0 0 1 1 2 2 1 0 -0 -1 -1
-2 -2 -5 -5 -4 -1 1 3 3 3 3 3 2 2 2 2 2 1 1 1 1 0 -0 -1 -1 -1 -1 -1 -1 -1 -1 -1 -1 -0 -0 -0 0 1 1 -1 -2 -2 -3 -4
-2 -2 -1 -1 0 2 2 3 3 3 3 2 2 2 2 1 1 1 1 0 -1 -1 -1 -1 -1 -1 -1 -1 -1 -1 -1 -2 -2 -1 -1 -1 -2 -1 -1 -2 -2 -4 -4 -5

GFSCGP_850_temp_075.txt.gz
Temp
13 12 11 12 13 13 10 13 13 13 12 13 12 10 11 15 15 17 19 19 19 19 20 20 20 19 19 18 18 17 17 17 16 15 14 14 14 13 13 13 13 12 12 11
11 11 12 10 10 11 12 12 13 12 11 12 11 11 11 12 13 15 16 17 17 18 18 19 19 20 20 19 19 18 18 17 17 16 16 15 14 14 14 13 13 13 12 12
11 12 10 11 11 12 12 12 12 14 12 10 10 12 12 12 12 14 14 15 16 17 18 19 19 19 19 19 19 19 18 18 17 17 16 15 14 14 14 15 15 14 13 12
12 10 10 10 11 11 13 12 11 11 12 13 10 13 12 12 11 12 12 13 14 14 15 17 18 18 18 19 19 19 18 18 17 16 16 16 15 15 16 15 15 15 14 13
12 9 10 11 12 12 13 10 10 10 9 11 11 12 12 11 15 13 12 13 13 14 15 15 16 17 17 18 18 18 18 18 17 17 16 15 15 15 15 14 14 14 13 13
10 11 12 12 8 10 7 9 8 7 8 10 10 10 12 13 14 14 12 13 13 14 14 15 15 16 17 17 17 18 17 17 17 16 15 14 14 14 13 13 13 13 12 12
10 11 10 10 9 9 10 10 10 10 8 10 7 8 11 12 12 12 12 12 13 13 14 14 15 15 15 16 16 16 16 16 15 15 14 14 13 13 13 13 13 12 12 12
9 10 9 10 10 9 9 11 10 11 8 10 7 9 11 10 10 11 11 11 12 13 13 13 14 14 14 14 14 14 14 14 14 14 13 13 13 13 13 13 13 13 13 13
9 11 9 9 10 11 10 11 9 5 -4 5 8 8 10 8 8 9 10 11 12 12 13 13 13 14 14 14 14 14 14 14 14 14 14 14 14 14 14 13 13 13 13 13
10 10 8 9 10 10 10 8 10 6 6 7 8 8 10 10 9 8 8 10 11 12 13 13 13 13 13 14 13 13 14 14 14 14 14 14 14 14 13 13 13 13 13 12
9 9 8 9 9 8 9 10 8 9 8 7 6 9 7 9 8 8 9 11 12 12 12 12 13 13 12 13 13 13 13 13 13 13 12 12 12 12 12 12 12 12 12 12
10 7 6 8 8 7 9 9 9 9 7 4 6 9 8 7 8 9 10 10 11 11 11 11 11 11 12 12 12 12 11 11 11 11 11 11 11 11 11 11 12 12 12 12
8 7 5 8 9 7 8 7 8 7 6 5 7 9 6 7 8 9 10 10 10 10 10 10 10 11 11 10 10 10 10 10 10 10 10 11 11 11 11 11 11 11 11 11
11 7 8 11 10 7 7 7 7 10 8 7 8 7 7 6 6 9 10 10 9 9 9 10 10 10 9 9 9 9 9 9 9 10 10 10 10 10 10 10 10 10 10 10
9 7 8 7 8 7 7 7 6 9 11 10 9 8 9 8 6 9 10 10 9 9 9 9 9 9 8 8 8 8 9 9 8 9 9 9 9 9 9 9 9 9 10 9
6 3 5 4 6 7 8 6 7 10 8 8 6 8 8 10 9 8 9 9 9 8 8 8 7 7 7 7 7 8 8 8 8 8 8 8 8 8 8 8 8 8 8 8
6 4 3 2 5 7 6 7 7 7 5 9 8 9 6 6 7 8 8 8 8 7 6 6 7 6 6 7 7 7 7 7 7 7 7 7 7 8 8 8 8 8 8 7
5 4 4 5 4 6 9 5 7 9 7 6 7 7 7 8 8 9 9 8 7 6 6 6 6 6 6 6 6 6 6 6 6 6 6 6 6 7 7 7 6 6 6 6
5 5 5 6 7 6 7 4 4 7 8 6 6 5 6 5 5 4 5 6 6 5 5 5 5 5 5 5 5 6 6 5 5 5 5 5 5 5 5 5 5 5 6 6
4 5 7 3 6 7 7 5 6 7 6 5 7 5 3 5 5 3 4 5 5 5 5 5 5 5 5 5 4 4 4 4 4 4 4 3 3 3 4 4 4 4 4 5
4 4 5 4 4 3 2 4 6 7 6 3 6 4 4 3 6 6 4 4 4 4 3 3 3 3 3 3 3 2 2 2 2 2 2 2 2 2 2 2 3 3 3 3
5 5 4 3 4 6 3 4 6 4 3 5 5 6 5 5 4 3 3 3 3 3 3 3 3 3 2 2 1 1 1 0 0 0 1 1 1 1 1 1 1 2 2 2
3 4 4 5 5 1 3 4 6 6 7 5 6 5 5 4 3 3 3 3 3 3 3 2 2 2 1 0 -0 -0 -0 -1 -1 -1 -0 -0 -0 0 0 0 0 0 1 1
-2 -2 1 3 -1 -1 2 3 5 6 8 6 5 4 4 3 3 3 3 3 3 2 2 1 0 -0 -1 -1 -1 -1 -1 -1 -1 -1 -1 -1 -1 -1 -1 -0 -0 -0 -1 -1
-1 -2 -5 -4 -3 -1 1 3 4 4 5 4 3 3 3 3 2 2 2 2 1 1 0 -1 -1 -1 -1 -1 -1 -1 -1 -1 -1 -1 -1 -1 -1 -1 -1 -1 -1 -2 -2 -3
-2 -1 1 1 1 3 3 4 4 5 3 3 3 2 2 2 2 2 1 1 0 -0 -1 -1 -1 -1 -1 -1 -1 -2 -2 -2 -2 -2 -2 -2 -2 -2 -3 -3 -2 -2 -4 -4